Simultaneous Nadir Overpasses (SNOs) Predictions

Prediction of SNOs between GOES-16 and METOP-C Satellite Orbit:

Table of predicted SNOs for the next 14.0 days since TLE Epoch: 10/28/2023
Index Date Time (GOES-16) GOES-16 Lat,Lon METOP-C Lat,Lon Distance(km) Time Diff (sec)
1 10/28/2023 14:40:53 -0.06, -75.22 0.56, -78.14 332.11 80
2 10/29/2023 14:22:54 -0.06, -75.22 -0.54, -73.14 237.65 80
3 10/31/2023 02:41:54 0.05, -75.21 -0.51, -77.73 287.42 80
4 11/01/2023 02:18:34 0.05, -75.21 0.60, -72.73 282.60 80
5 11/02/2023 14:37:26 -0.04, -75.25 0.42, -77.29 232.96 80
6 11/03/2023 14:19:26 -0.04, -75.26 -0.69, -72.29 337.47 80
7 11/05/2023 02:38:27 0.04, -75.25 -0.33, -76.89 186.19 80
8 11/06/2023 02:15:07 0.03, -75.27 0.79, -71.89 384.71 80
9 11/07/2023 14:33:58 -0.03, -75.31 0.23, -76.45 129.52 80
10 11/08/2023 14:13:19 -0.03, -75.33 -0.89, -71.45 441.87 80
11 11/10/2023 02:34:59 0.03, -75.34 -0.10, -76.05 80.23 80
